Погода в Лиде

Погода в Лиде : погода сейчас, прогноз погоды и архив. Всё, что Вы хотите узнать о погоде в Лиде!

Хотите узнать прогноз погоды в Лиде? Тогда Вам сюда: Погода в Лиде

Поиск расширенной информации на нашем сайте:

Другие новости

Новости СМИ2

Главная страница сайта

Новости сайта

02.10.2013

Напоминаем, что на нашем новом сайте вы можете получить высокодетализированные прогнозы погоды по пунктам России, СНГ и мира (включающие важные для авиации метеовеличины, такие как направление и скорость ветра, видимость, явления погоды, количество и форма облачности, нижняя и верхняя граница облачности), а также ознакомиться с разнообразными материалами по авиационной метеорологии и подборкой полезных ссылок на эту тему.

Сайт Метеоцентр.Азия посвящён разработке технологий оптимизации авиаметеорологического обслуживания, включая проектирование и перспективное создание нескольких автоматизированных авиаметеорологических систем:
- система выпуска высокодетальных прогностических карт явлений погоды для нижнего воздушного пространства по России и ближнему зарубежью;
- система верификации прогнозов TAF (выпускаемых синоптиками официальных АМСГ РФ и ближнего зарубежья) и AUTOTAF (выпускаемых сайтом Метеоцентр.Азия) - выявление ошибок, онлайн-сопоставление с фактической погодой METAR, автоматическое внесение коррективов в прогнозы при резком отклонении фактической погоды от прогноза, подсчёт оправдываемости прогнозов по элементам и в целом;
- система обработки, анализа и отображения авиаметеорологической информации для применения провайдерами метеорологической информации.

Рекомендуем: купить автоприцеп для легкового авто

Погода в Лиде - сегодня

Время (UTC), дата Ветер
(°,м/с) 
Видим.   Явления Облачность Т
(°С)
Тd
(°С)
f(%) Тe
(°С)
Pmin
(гПа)
dP
(гПа)
Po
(мм)
O2
(г/м3)
Тmin Tmax R s Состояние
почвы
09 22.03.17 330 (СЗ) 4300 м  слаб. ливневой дождь  10/10 180 м кучево-дожд. 
[Cb calv]
+4.8 +3.1 89 +3  1016  2.4  748  296           
12 22.03.17 260 (З) 10 км  {ливн. осадки}  9/9 540 м 
[Sc]
+5.7 +2 77 +5  1017.3  1.3  749  295           
15 22.03.17 310 (СЗ) 10 км    9/0 средняя 
[Ac trans]
+6.2 +2 74 +6  1018.7  1.4  750  295         
18 22.03.17 290 (З) 10 км    3/0 средняя 
[Ac trans]
+4 +0.9 80 +5  1020.8  1.8  751  298    +7.7     
21 22.03.17 310 (СЗ) 9000 м  дымка  ясно 
+1.7 +0.1 89 +2  1022.5  1.6  752  301           
00 23.03.17 тихо ()   7000 м  дымка  ясно 
-1.3 -2.3 93 -1  1024.7  754  305           
03 23.03.17 тихо ()   7000 м  дымка  ясно 
-1.7 -2.5 94 -2  1025.9  754  306           
06 23.03.17 170 (Ю) 8000 м  дымка  3/0 верхняя 
[Ci fib]
-0.1 -1.5 90 +1  1027.1  1.3  755  305  -2         
09 23.03.17 330 (СЗ) 12000 м    8/0 средняя, верхняя 
[Ac trans|Ci fib]
+7.2 +0.4 62 +7  1027.4  0.9  756  297           
12 23.03.17 250 (З) 15000 м    8/0 средняя, верхняя 
[Ac trans|Ci fib]
+10.2 -0.7 47 +11  1026.2  -1.1  755  293           
15 23.03.17 110 (В) 15000 м    9/0 средняя 
[Ac trans]
+10.4 -1.7 43 +12  1024.9  -1.3  754  293           
18 23.03.17 090 (В) 10 км    9/0 средняя 
[Ac trans]
+5 +0.9 75 +6  1024.6  -0.5  754  298    +11.1       
21 23.03.17 170 (Ю) 10 км    9/0 средняя 
[Ac As]
+5.8 +1 71 +7  1024  -0.5  753  297           
00 24.03.17 340 (С) 10 км    9/0 средняя 
[Ac As]
+7.2 +0.6 63 +8  1022.6  -1.3  752  295           
03 24.03.17 310 (СЗ) 10 км    10/8 420 м средняя 
[St|Ac As]
+5.5 +1.8 77 +6  1021.6  -1.1  752  297           
06 24.03.17 350 (С) 11000 м  {дождь}  9/0 средняя 
[Ac As]
+5.6 -0.2 66 +5  1022.1  0.5  752  297  +4.5    0.0     
09 24.03.17 050 (СВ) 12000 м    8/4 300 м средняя 
[St|Ac trans]
+8.2 +1.1 61 +8  1022.7  0.7  753  294           
12 24.03.17 330 (СЗ) 4{11}  15000 м    4/4 1000 м 
[Cu hum]
+10.3 -4.7 34 +9  1023  0.4  753  293           
15 24.03.17 350 (С) 5-10{11}  15000 м    3/3 1000 м 
[Cu hum]
+8.7 -8.2 29 +7  1023.9  0.8  753  295           
18 24.03.17 340 (С) 2{11}  13000 м    3/0 верхняя 
[Ci fib]
+5.2 -6.6 42 +5  1026.1  755  299    +11       
21 24.03.17 300 (СЗ) 11000 м    ясно 
+1 -4.6 66 +2  1026.8  0.4  755  304           
00 25.03.17 300 (СЗ) 10 км    ясно 
-0.1 -4.2 74 +1  1026.6  -0.4  755  305           
03 25.03.17 280 (З) 10 км    9/0 средняя 
[Ac As]
+0.2 -3.5 76 -1  1025.2  -1.4  754  304           
06 25.03.17 260 (З) 10 км  в посл. час снег  9/9 600 м 
[Sc]
+0.6 -2.5 80 +1  1023.9  -1  753  303  -0.5    0.0     
09 25.03.17 200 (Ю) 8000 м  в посл. час снег  10/10 300 м 
[Sc]
+2 +0.7 91 +1  1021.2  -2.7  751  300           
Время (UTC), дата Ветер
(°,м/с) 
Видим.   Явления Облачность Т
(°С)
Тd
(°С)
f(%) Тe
(°С)
Pmin
(гПа)
dP
(гПа)
Po
(мм)
O2
(г/м3)
Тmin Tmax R s Состояние
почвы

Для получения пояснительной информации подведите курсор к названию столбца.

ПОГОДА в Лиде - архив

Всё, что Вы хотите узнать о погоде в Лиде - удобно и подробно!

Выберите нужную дату (начиная с 1 января 2015* года) и нажмите кнопку "Найти".
Будут отображены архивные сводки погоды по пункту Лида, начиная с указанной даты.


Отображать данные в формате CSV (для использования в таблицах Excel)


Внимание! Наш архив погоды предназначен исключительно для личного некоммерческого использования в познавательных целях. Если Вам необходимы официальные справки о состоянии погоды (для производственных, юридических, коммерческих и т.п. целей), обращайтесь в органы Росгидромета.

*Примечание: данная дата относится к архиву по метеостанциям СССР (Россия, СНГ, Балтия).
Архив по метеостанциям Зарубежной Европы и Азии (кроме Китая) хранится 10 дней, по другим регионам земного шара (Китай, Африка, Америка, Австралия, Океания) - 1 день.

Лида - район местоположения метеостанции


Название, широта, долгота, высота метеостанции:
Лида 53.9°ш. 25.3°д. 157 м над ур. моря [Беларусь]

Дополнительная информация

В oтличие oт бoльшинства пoгoдных сайтoв мы публикуем пoдрoбную метеoинфoрмацию в детальнoм прoфессиoнальнoм фoрмате.

Характеристики температуры и влажнoсти вoздуха измеряются на высoте 2 м в тени вдали oт зданий и деревьев.
Скoрoсть ветра измеряется на высoте 10 м (на урoвне рoста челoвека скoрoсть ветра ниже в 1.5-2 раза). Если метеoстанция нахoдится в гoрoде или в лесу, тo скoрoсть ветра занижена на 2-4 м/с пo сравнению с oткрытым местoм. Скoрoсть ветра над акватoриями крупных рек и oзёр, а также на вершинах хoлмoв на 2-5 м/с выше, чем в oбычных услoвиях.
Атмoсфернoе давление в разных тoчках местнoсти мoжет значительнo oтличаться oт давления на метеoстанции, в зависимoсти oт услoвий рельефа (при пoдъёме на 10 м давление пoнижается примернo на 1 мм рт.ст.).